Overview Statistics Trail Chart Weather Telemetry Raw packets
 

This is the latest recevied weather packets stored in our database for station/object OK1ALX-6. If no packets are shown the sender has not sent any weather packets the latest 10 day(s).

<< 4 5 6 7 8 9 10 >>
Time Temp. Humidity Pressure Rain* Wind** Luminosity Snow
1788523803 25° C 55% 1018.7 hPa 0 mm - 751 W/m² -
1788523203 25° C 56% 1018.8 hPa 0 mm - 108 W/m² -
1788522603 25° C 56% 1018.6 hPa 0 mm - 178 W/m² -
1788522003 24.44° C 56% 1018.6 hPa 0 mm - 325 W/m² -
1788521403 24.44° C 57% 1019 hPa 0 mm - 121 W/m² -
1788520803 24.44° C 55% 1018.9 hPa 0 mm - 109 W/m² -
1788520203 24.44° C 58% 1019.3 hPa 0 mm - 147 W/m² -
1788519603 25° C 58% 1019.2 hPa 0 mm - 276 W/m² -
1788519003 24.44° C 57% 1019.6 hPa 0 mm - 437 W/m² -
1788518403 24.44° C 60% 1019.7 hPa 0 mm - 368 W/m² -
1788517803 24.44° C 58% 1019.8 hPa 0 mm - 517 W/m² -
1788517203 25° C 57% 1019.9 hPa 0 mm - 392 W/m² -
1788516603 25.56° C 57% 1019.9 hPa 0 mm - 665 W/m² -
1788516003 25° C 59% 1020.2 hPa 0 mm - 742 W/m² -
1788515403 23.89° C 61% 1020.3 hPa 0 mm - 682 W/m² -
1788514803 23.89° C 63% 1020.3 hPa 0 mm - 559 W/m² -
1788514203 23.33° C 63% 1020.5 hPa 0 mm - 342 W/m² -
1788513603 23.33° C 65% 1020.9 hPa 0 mm - 313 W/m² -
1788513003 22.22° C 66% 1021.1 hPa 0 mm - 355 W/m² -
1788512403 22.22° C 68% 1021.2 hPa 0 mm - 177 W/m² -
1788511803 22.22° C 69% 1021.4 hPa 0 mm - 279 W/m² -
1788511203 21.67° C 70% 1021.4 hPa 0 mm - 215 W/m² -
1788510603 21.67° C 69% 1021.6 hPa 0 mm - 143 W/m² -
1788510003 21.11° C 70% 1021.9 hPa 0 mm - 229 W/m² -
1788509403 21.11° C 69% 1022.3 hPa 0 mm - 161 W/m² -

* Rain latest hour (hover to see other rain measurements)
** Current wind speed in m/s (hover to see current wind gust speed)